User: anonymous   Login
Location: Cypress Hills Dark-Sky Preserve - CHICO
(49.6176°N, 110.2634°W)
Time: 21:47:17
(UTC-06:00)
Language:

SPOT 5 - Orbit

View from above orbital plane
View from above orbital plane
View from above satellite
View from above satellite

Ground track
Ground track

The orbit data is extracted from the following two-line orbital elements,

1 27421U 02021A   15146.87522631  .00000022  00000-0  29743-4 0  9995
2 27421 098.5124 203.2619 0001424 101.2004 005.8383 14.20883603677102
Epoch (UTC): 26 May 2015 21:00:19
Eccentricity: 0.0001424
inclination: 98.5124°
perigee height: 821 km
apogee height: 823 km
right ascension of ascending node: 203.2619°
argument of perigee: 101.2004°
revolutions per day: 14.20883603
mean anomaly at epoch: 5.8383°
orbit number at epoch: 67710

The dashed part of the orbit path shows where the satellite is in the earth's shadow,  

DLR